DW1234 Weather Reports


time (UTC)temp
F
wind
direction
speed
knots
gust
knots
rain 1hr
in
rain 24hr
in
rain mn
in
humidity
%
barometer
mb
20260508070722 57 40 4.3 5.2 0.00 0.00 0.00 45 1010.3
20260508070234 57 26 3.5 4.3 0.00 0.00 0.00 44 1010.4
20260508070035 56 30 3.5 4.3 0.00 0.00 0.00 44 1009.8
20260508065746 57 52 3.5 4.3 0.00 0.00 0.00 43 1010.4
20260508065231 57 52 3.5 6.1 0.00 0.00 0.00 44 1010.4
20260508064742 57 38 4.3 6.1 0.00 0.00 0.00 46 1010.4
20260508064541 56 39 3.5 4.3 0.00 0.00 0.00 45 1009.8
20260508064228 57 53 3.5 4.3 0.00 0.00 0.00 44 1010.4
20260508063733 57 53 2.6 4.3 0.00 0.00 0.00 42 1010.6
20260508063245 57 54 3.5 4.3 0.00 0.00 0.00 42 1010.5
20260508063027 56 137 2.6 3.5 0.00 0.00 0.00 42 1010.0
20260508062728 57 137 2.6 3.5 0.00 0.00 0.00 43 1010.6
20260508062241 57 137 0.9 3.5 0.00 0.00 0.00 43 1010.7
20260508061724 57 137 1.7 3.5 0.00 0.00 0.00 43 1010.8
20260508061539 57 137 2.6 3.5 0.00 0.00 0.00 43 1010.2
20260508061237 58 137 3.5 3.5 0.00 0.00 0.00 43 1010.8
20260508060745 58 137 2.6 3.5 0.00 0.00 0.00 40 1010.8
20260508060229 58 91 1.7 3.5 0.00 0.00 0.00 39 1010.8
20260508060041 57 91 1.7 3.5 0.00 0.00 0.00 39 1010.1
20260508055738 58 91 2.6 3.5 0.00 0.00 0.00 40 1010.7
20260508055222 58 61 2.6 3.5 0.00 0.00 0.00 40 1010.6
20260508054733 58 57 2.6 3.5 0.00 0.00 0.00 40 1010.5
20260508054549 58 57 2.6 3.5 0.00 0.00 0.00 40 1009.8
20260508054244 58 57 2.6 4.3 0.00 0.00 0.00 40 1010.5
20260508053724 58 56 2.6 4.3 0.00 0.00 0.00 40 1010.4
20260508053236 58 57 2.6 4.3 0.00 0.00 0.00 40 1010.4
20260508053101 58 51 2.6 4.3 0.00 0.00 0.00 40 1009.8
20260508052746 58 53 3.5 4.3 0.00 0.00 0.00 40 1010.3
20260508052230 58 66 3.5 4.3 0.00 0.00 0.00 40 1010.4
20260508051737 58 58 3.5 4.3 0.00 0.00 0.00 40 1010.3
20260508051605 58 56 2.6 4.3 0.00 0.00 0.00 39 1009.8
20260508051249 58 50 3.5 5.2 0.00 0.00 0.00 39 1010.4
20260508050739 58 22 3.5 5.2 0.00 0.00 0.00 39 1010.4
20260508050248 58 24 3.5 4.3 0.00 0.00 0.00 40 1010.4
20260508050033 58 39 2.6 5.2 0.00 0.00 0.00 39 1010.0
20260508045749 58 42 3.5 5.2 0.00 0.00 0.00 39 1010.5
20260508045232 58 42 3.5 5.2 0.00 0.00 0.00 39 1010.6
20260508044743 58 49 3.5 4.3 0.00 0.00 0.00 38 1010.7
20260508044515 58 58 2.6 4.3 0.00 0.00 0.00 38 1010.2
20260508044232 58 58 2.6 3.5 0.00 0.00 0.00 38 1010.7
20260508043744 58 58 2.6 3.5 0.00 0.00 0.00 38 1010.8
20260508043228 58 62 2.6 4.3 0.00 0.00 0.00 37 1010.8
20260508043022 58 62 2.6 4.3 0.00 0.00 0.00 37 1010.3
20260508042739 59 62 2.6 4.3 0.00 0.00 0.00 37 1010.8
20260508042252 59 66 3.5 4.3 0.00 0.00 0.00 37 1010.7
20260508041743 59 71 3.5 4.3 0.00 0.00 0.00 37 1010.7
20260508041608 58 64 2.6 4.3 0.00 0.00 0.00 37 1010.2
20260508041514 58 65 2.6 4.3 0.00 0.00 0.00 37 1010.2
20260508041227 59 66 2.6 4.3 0.00 0.00 0.00 37 1010.8
20260508040733 59 67 3.5 6.1 0.00 0.00 0.00 37 1010.8
20260508040243 59 83 3.5 6.1 0.00 0.00 0.00 37 1010.8
20260508040010 58 92 3.5 6.1 0.00 0.00 0.00 37 1010.2
20260508035726 59 88 4.3 6.1 0.00 0.00 0.00 37 1010.7
20260508035237 59 86 3.5 6.1 0.00 0.00 0.00 37 1010.6
20260508034723 59 83 3.5 6.1 0.00 0.00 0.00 37 1010.5
20260508034526 59 68 3.5 5.2 0.00 0.00 0.00 36 1010.1
20260508034237 60 86 3.5 5.2 0.00 0.00 0.00 36 1010.6
20260508033746 60 82 3.5 5.2 0.00 0.00 0.00 36 1010.6
20260508033237 60 49 3.5 4.3 0.00 0.00 0.00 36 1010.7
20260508033009 60 49 2.6 3.5 0.00 0.00 0.00 36 1010.2
20260508032748 60 49 2.6 3.5 0.00 0.00 0.00 36 1010.8
20260508032238 60 49 2.6 3.5 0.00 0.00 0.00 36 1010.8
20260508031749 61 49 2.6 3.5 0.00 0.00 0.00 35 1010.7
20260508031532 60 49 2.6 3.5 0.00 0.00 0.00 35 1010.2
20260508031302 61 49 2.6 3.5 0.00 0.00 0.00 35 1010.7
20260508030723 61 49 2.6 4.3 0.00 0.00 0.00 35 1010.7
20260508030237 61 49 3.5 4.3 0.00 0.00 0.00 35 1010.7
20260508030019 61 49 2.6 4.3 0.00 0.00 0.00 35 1010.2
20260508025744 61 49 3.5 4.3 0.00 0.00 0.00 35 1010.7
20260508025225 61 49 3.5 4.3 0.00 0.00 0.00 34 1010.7
20260508024736 61 49 3.5 5.2 0.00 0.00 0.00 34 1010.6
20260508024525 61 49 2.6 5.2 0.00 0.00 0.00 34 1010.1
20260508024223 62 49 3.5 5.2 0.00 0.00 0.00 33 1010.5
20260508023736 62 44 2.6 4.3 0.00 0.00 0.00 33 1010.5
20260508023222 62 44 1.7 3.5 0.00 0.00 0.00 32 1010.5
20260508023030 62 32 1.7 4.3 0.00 0.00 0.00 32 1010.1
20260508022733 62 42 2.6 4.3 0.00 0.00 0.00 32 1010.5
20260508022244 63 26 2.6 4.3 0.00 0.00 0.00 32 1010.4
20260508021727 63 19 3.5 4.3 0.00 0.00 0.00 31 1010.3
20260508021530 63 10 2.6 4.3 0.00 0.00 0.00 31 1009.8
20260508021239 63 9 2.6 3.5 0.00 0.00 0.00 31 1010.2
20260508020750 64 9 1.7 3.5 0.00 0.00 0.00 31 1010.0
20260508020242 64 9 1.7 3.5 0.00 0.00 0.00 30 1010.0
20260508020058 64 9 2.6 3.5 0.00 0.00 0.00 30 1009.4
20260508015733 64 9 2.6 3.5 0.00 0.00 0.00 30 1009.9
20260508015246 65 5 2.6 4.3 0.00 0.00 0.00 30 1009.9
20260508014730 65 9 2.6 5.2 0.00 0.00 0.00 29 1009.9
20260508014600 65 355 2.6 5.2 0.00 0.00 0.00 30 1009.4
20260508014243 65 350 3.5 5.2 0.00 0.00 0.00 30 1009.8
20260508013809 66 355 3.5 5.2 0.00 0.00 0.00 29 1009.9
20260508013235 66 350 3.5 5.2 0.00 0.00 0.00 29 1009.8
20260508013044 66 355 3.5 5.2 0.00 0.00 0.00 28 1009.2
20260508012748 67 343 4.3 5.2 0.00 0.00 0.00 28 1009.7
20260508012233 67 355 3.5 5.2 0.00 0.00 0.00 28 1009.6
20260508011807 68 350 4.3 8.7 0.00 0.00 0.00 28 1009.6
20260508011524 68 5 3.5 8.7 0.00 0.00 0.00 28 1009.1
20260508011232 68 355 5.2 8.7 0.00 0.00 0.00 27 1009.5
20260508010744 69 360 6.1 8.7 0.00 0.00 0.00 27 1009.5
20260508010221 70 360 6.1 7.8 0.00 0.00 0.00 27 1009.5
20260508010029 69 360 4.3 7.8 0.00 0.00 0.00 27 1009.0
20260508005754 70 347 4.3 7.8 0.00 0.00 0.00 27 1009.4
20260508005245 70 345 3.5 5.2 0.00 0.00 0.00 26 1009.4
20260508004733 70 340 3.5 7.0 0.00 0.00 0.00 26 1009.4
20260508004514 70 316 3.5 11.3 0.00 0.00 0.00 26 1008.9
20260508004246 71 333 3.5 11.3 0.00 0.00 0.00 25 1009.2
20260508003728 71 327 7.0 12.2 0.00 0.00 0.00 25 1009.1
20260508003241 71 331 7.8 12.2 0.00 0.00 0.00 24 1009.2
20260508003022 71 321 7.8 12.2 0.00 0.00 0.00 24 1008.7
20260508002725 71 355 6.1 10.4 0.00 0.00 0.00 24 1009.2
20260508002234 71 305 6.1 13.9 0.00 0.00 0.00 23 1009.2
20260508001805 72 343 7.8 13.9 0.00 0.00 0.00 23 1009.1
20260508001503 71 317 7.0 11.3 0.00 0.00 0.00 23 1008.6
20260508001230 72 317 7.0 13.0 0.00 0.00 0.00 24 1009.1
20260508000740 72 334 8.7 13.9 0.00 0.00 0.00 24 1009.0
20260508000227 72 311 7.8 14.8 0.00 0.00 0.00 24 1009.0
20260508000011 72 325 7.8 14.8 0.00 0.00 0.00 24 1008.6
20260507235737 73 314 7.8 14.8 0.00 0.00 0.00 23 1009.0
20260507235249 73 304 9.6 17.4 0.00 0.00 0.00 24 1009.0
20260507234736 73 291 8.7 17.4 0.00 0.00 0.00 23 1009.0
20260507234505 73 321 11.3 17.4 0.00 0.00 0.00 23 1008.7
20260507234251 73 275 8.7 12.2 0.00 0.00 0.00 24 1009.1
20260507233741 73 292 6.1 10.4 0.00 0.00 0.00 25 1009.1
20260507233226 73 317 5.2 9.6 0.00 0.00 0.00 25 1009.0
20260507233044 72 302 6.1 13.9 0.00 0.00 0.00 25 1008.6
20260507232740 73 318 5.2 13.9 0.00 0.00 0.00 24 1009.0
20260507232224 73 324 10.4 13.9 0.00 0.00 0.00 24 1009.1
20260507231736 73 272 7.0 11.3 0.00 0.00 0.00 25 1009.0
20260507231552 72 292 5.2 11.3 0.00 0.00 0.00 27 1008.9
20260507231222 73 277 7.8 11.3 0.00 0.00 0.00 26 1009.1
20260507230749 73 331 5.2 14.8 0.00 0.00 0.00 27 1009.1
20260507230233 73 327 9.6 14.8 0.00 0.00 0.00 25 1009.0
20260507230052 72 330 9.6 14.8 0.00 0.00 0.00 27 1008.7
20260507225745 72 263 6.1 13.0 0.00 0.00 0.00 26 1009.0
20260507225227 73 342 7.8 13.9 0.00 0.00 0.00 27 1009.0
20260507224738 73 338 8.7 14.8 0.00 0.00 0.00 27 1009.0
20260507224559 72 343 9.6 14.8 0.00 0.00 0.00 26 1008.6
20260507224230 73 325 10.4 14.8 0.00 0.00 0.00 26 1009.1
20260507223740 73 312 7.0 13.9 0.00 0.00 0.00 27 1009.2
20260507223308 74 323 9.6 13.9 0.00 0.00 0.00 26 1009.2
20260507223022 73 324 5.2 13.0 0.00 0.00 0.00 27 1008.8
20260507222730 73 291 7.8 13.0 0.00 0.00 0.00 27 1009.2
20260507222245 73 319 10.4 13.9 0.00 0.00 0.00 26 1009.2
20260507221728 74 321 10.4 15.6 0.00 0.00 0.00 26 1009.2
20260507221529 73 315 9.6 16.5 0.00 0.00 0.00 26 1008.9
20260507221241 73 296 8.7 16.5 0.00 0.00 0.00 26 1009.2
20260507220724 74 338 11.3 16.5 0.00 0.00 0.00 25 1009.2
20260507220235 74 292 9.6 15.6 0.00 0.00 0.00 25 1009.2
20260507220031 74 298 6.1 17.4 0.00 0.00 0.00 26 1008.8
20260507215743 74 284 7.8 17.4 0.00 0.00 0.00 25 1009.2
20260507215227 74 278 11.3 20.0 0.00 0.00 0.00 24 1009.2
20260507214739 74 305 14.8 20.0 0.00 0.00 0.00 25 1009.1
20260507214538 73 294 11.3 19.1 0.00 0.00 0.00 24 1008.7
20260507214252 74 286 13.9 20.9 0.00 0.00 0.00 23 1009.1
20260507213743 74 275 13.0 20.9 0.00 0.00 0.00 22 1009.2
20260507213223 74 320 9.6 15.6 0.00 0.00 0.00 26 1009.2
20260507213020 74 309 7.8 17.4 0.00 0.00 0.00 28 1008.8
20260507212734 74 313 8.7 17.4 0.00 0.00 0.00 26 1009.3
20260507212246 74 305 12.2 22.6 0.00 0.00 0.00 26 1009.2
20260507211728 75 296 15.6 22.6 0.00 0.00 0.00 25 1009.1
20260507211526 75 302 14.8 20.9 0.00 0.00 0.00 26 1008.8
20260507211241 75 343 13.0 20.0 0.00 0.00 0.00 27 1009.2
20260507210725 75 344 8.7 20.0 0.00 0.00 0.00 27 1009.2
20260507210258 74 333 9.6 18.2 0.00 0.00 0.00 27 1009.4
20260507210058 73 305 5.2 17.4 0.00 0.00 0.00 27 1008.9
20260507210005 73 252 5.2 17.4 0.00 0.00 0.00 27 1008.9
20260507205722 74 250 9.6 17.4 0.00 0.00 0.00 28 1009.4
20260507205234 75 296 10.4 20.9 0.00 0.00 0.00 26 1009.3
20260507204746 75 292 14.8 20.9 0.00 0.00 0.00 24 1009.4
20260507204516 74 284 11.3 19.1 0.00 0.00 0.00 26 1009.1
20260507204231 74 293 11.3 19.1 0.00 0.00 0.00 25 1009.4
20260507203736 74 300 10.4 18.2 0.00 0.00 0.00 26 1009.5
20260507203221 75 319 12.2 18.2 0.00 0.00 0.00 23 1009.5
20260507203020 75 266 12.2 18.2 0.00 0.00 0.00 23 1009.1
20260507202732 75 290 11.3 18.2 0.00 0.00 0.00 26 1009.6
20260507202242 75 302 11.3 20.9 0.00 0.00 0.00 27 1009.6
20260507201727 74 229 7.0 20.9 0.00 0.00 0.00 28 1009.6
20260507201524 74 249 10.4 20.9 0.00 0.00 0.00 27 1009.3
20260507201242 75 284 8.7 18.2 0.00 0.00 0.00 29 1009.6
20260507200726 76 300 13.9 17.4 0.00 0.00 0.00 25 1009.6
20260507200253 76 323 11.3 16.5 0.00 0.00 0.00 25 1009.6
20260507200103 75 294 10.4 16.5 0.00 0.00 0.00 27 1009.3
20260507195803 74 297 8.7 19.1 0.00 0.00 0.00 31 1009.6
20260507195226 74 275 10.4 19.1 0.00 0.00 0.00 30 1009.7
20260507194739 74 290 9.6 17.4 0.00 0.00 0.00 31 1009.6
20260507194539 74 342 12.2 21.7 0.00 0.00 0.00 29 1009.3
20260507194224 75 289 11.3 21.7 0.00 0.00 0.00 30 1009.6
20260507193733 74 306 13.9 21.7 0.00 0.00 0.00 28 1009.5
20260507193246 74 238 9.6 16.5 0.00 0.00 0.00 28 1009.6
20260507193051 74 251 11.3 16.5 0.00 0.00 0.00 25 1009.2
20260507192729 75 262 11.3 15.6 0.00 0.00 0.00 29 1009.7
20260507192236 73 209 7.0 14.8 0.00 0.00 0.00 35 1009.7
20260507191748 73 317 7.0 18.2 0.00 0.00 0.00 31 1009.6
20260507191547 73 297 10.4 18.2 0.00 0.00 0.00 32 1009.3
20260507191233 74 244 13.9 20.0 0.00 0.00 0.00 33 1009.7
20260507190742 73 252 9.6 20.0 0.00 0.00 0.00 33 1009.6
20260507190226 72 263 7.8 16.5 0.00 0.00 0.00 34 1009.6
20260507190049 72 216 7.8 16.5 0.00 0.00 0.00 32 1009.4
20260507185737 71 279 12.2 17.4 0.00 0.00 0.00 34 1009.7
20260507185249 71 279 10.4 19.1 0.00 0.00 0.00 33 1009.8
20260507184730 74 238 12.2 18.2 0.00 0.00 0.00 31 1009.8
20260507184533 73 206 7.8 13.0 0.00 0.00 0.00 31 1009.7
20260507184302 74 257 5.2 12.2 0.00 0.00 0.00 37 1010.0
20260507183722 72 247 7.8 18.2 0.00 0.00 0.00 32 1010.0
20260507183235 71 267 7.8 16.5 0.00 0.00 0.00 35 1010.2
20260507183013 71 219 7.8 16.5 0.00 0.00 0.00 33 1009.9
20260507182745 72 284 10.4 16.5 0.00 0.00 0.00 34 1010.2
20260507182234 71 271 11.3 18.2 0.00 0.00 0.00 34 1010.2
20260507181746 71 254 13.0 18.2 0.00 0.00 0.00 34 1010.4
20260507181559 71 227 12.2 20.0 0.00 0.00 0.00 33 1010.2
20260507181228 71 238 13.0 20.0 0.00 0.00 0.00 33 1010.5
20260507180739 71 245 13.9 20.0 0.00 0.00 0.00 33 1010.5
20260507180223 71 259 9.6 25.2 0.00 0.00 0.00 35 1010.5
20260507180017 70 194 13.9 25.2 0.00 0.00 0.00 33 1010.2
20260507175733 70 215 11.3 20.9 0.00 0.00 0.00 36 1010.3
20260507175244 71 260 12.2 19.1 0.00 0.00 0.00 34 1010.5
20260507174726 71 260 13.0 20.9 0.00 0.00 0.00 33 1010.6
20260507174512 71 256 13.0 20.9 0.00 0.00 0.00 34 1010.4
20260507174238 71 259 12.2 20.9 0.00 0.00 0.00 32 1010.6
20260507173721 70 215 12.2 22.6 0.00 0.00 0.00 32 1010.7
20260507173309 70 234 16.5 22.6 0.00 0.00 0.00 31 1010.7
20260507173048 70 225 12.2 21.7 0.00 0.00 0.00 31 1010.4
20260507172729 70 234 11.3 21.7 0.00 0.00 0.00 31 1010.7
20260507172239 70 230 13.9 21.7 0.00 0.00 0.00 31 1010.7
20260507171722 70 241 11.3 21.7 0.00 0.00 0.00 32 1010.8
20260507171559 70 219 12.2 21.7 0.00 0.00 0.00 32 1010.6
20260507171236 70 201 11.3 20.9 0.00 0.00 0.00 31 1010.8
20260507170806 70 221 10.4 18.2 0.00 0.00 0.00 32 1011.0
20260507170227 70 199 11.3 21.7 0.00 0.00 0.00 31 1011.1
20260507170031 69 212 12.2 21.7 0.00 0.00 0.00 30 1010.9
20260507165734 69 225 7.0 20.0 0.00 0.00 0.00 33 1011.2
20260507165246 70 227 12.2 20.0 0.00 0.00 0.00 33 1011.3
20260507164730 69 211 11.3 17.4 0.00 0.00 0.00 34 1011.3
20260507164539 68 217 9.6 17.4 0.00 0.00 0.00 32 1011.1
20260507164244 69 213 12.2 19.1 0.00 0.00 0.00 30 1011.3
20260507163724 69 167 9.6 19.1 0.00 0.00 0.00 32 1011.3
20260507163234 69 200 12.2 19.1 0.00 0.00 0.00 33 1011.4
20260507163036 67 229 9.6 16.5 0.00 0.00 0.00 34 1011.3
20260507162745 67 214 10.4 18.2 0.00 0.00 0.00 34 1011.6
20260507162226 67 236 11.3 18.2 0.00 0.00 0.00 36 1011.6
20260507161753 66 215 11.3 17.4 0.00 0.00 0.00 35 1011.7
20260507161519 66 213 11.3 17.4 0.00 0.00 0.00 37 1011.7
20260507161224 66 225 11.3 17.4 0.00 0.00 0.00 39 1011.7
20260507160732 66 216 11.3 17.4 0.00 0.00 0.00 38 1011.8
20260507160243 67 221 10.4 17.4 0.00 0.00 0.00 41 1012.0
20260507160050 66 200 10.4 17.4 0.00 0.00 0.00 43 1011.9
20260507155726 65 231 9.6 13.9 0.00 0.00 0.00 41 1012.1
20260507155238 64 216 7.8 13.9 0.00 0.00 0.00 44 1012.2
20260507154722 64 219 8.7 13.9 0.00 0.00 0.00 45 1012.2
20260507154543 64 242 9.6 13.9 0.00 0.00 0.00 46 1012.1
20260507154230 64 239 9.6 14.8 0.00 0.00 0.00 47 1012.2
20260507153737 64 220 8.7 18.2 0.00 0.00 0.00 45 1012.2
20260507153249 63 244 10.4 18.2 0.00 0.00 0.00 44 1012.3
20260507153046 63 230 10.4 13.9 0.00 0.00 0.00 44 1012.2
20260507152731 64 186 7.8 13.9 0.00 0.00 0.00 47 1012.3
20260507152242 64 211 7.0 13.9 0.00 0.00 0.00 48 1012.3
20260507151725 62 239 10.4 13.0 0.00 0.00 0.00 47 1012.4
20260507151550 62 254 9.6 13.0 0.00 0.00 0.00 46 1012.3
20260507151239 63 193 9.6 13.0 0.00 0.00 0.00 48 1012.4
20260507150744 62 232 7.0 13.9 0.00 0.00 0.00 52 1012.4
20260507150227 61 235 8.7 13.9 0.00 0.00 0.00 51 1012.5
20260507150052 60 250 8.7 13.9 0.00 0.00 0.00 52 1012.4
20260507145738 61 225 8.7 15.6 0.00 0.00 0.00 52 1012.6
20260507145220 60 214 7.0 15.6 0.00 0.00 0.00 53 1012.6
20260507144734 60 225 8.7 13.9 0.00 0.00 0.00 56 1012.6
20260507144616 59 221 7.8 13.9 0.00 0.00 0.00 55 1012.5
20260507144246 60 211 6.1 13.9 0.00 0.00 0.00 54 1012.6
20260507143726 59 192 8.7 14.8 0.00 0.00 0.00 56 1012.7
20260507143235 59 228 11.3 14.8 0.00 0.00 0.00 55 1012.7
20260507143052 58 222 10.4 14.8 0.00 0.00 0.00 56 1012.7
20260507142742 58 250 11.3 15.6 0.00 0.00 0.00 57 1012.7
20260507142223 58 214 7.8 15.6 0.00 0.00 0.00 57 1012.8
20260507141754 57 221 9.6 13.9 0.00 0.00 0.00 58 1012.8
20260507141520 57 223 8.7 15.6 0.00 0.00 0.00 60 1012.8
20260507141246 57 227 7.8 15.6 0.00 0.00 0.00 59 1012.9
20260507140728 57 220 8.7 13.0 0.00 0.00 0.00 60 1012.9
20260507140238 56 228 8.7 15.6 0.00 0.00 0.00 62 1012.9
20260507140020 55 216 9.6 16.5 0.00 0.00 0.00 61 1013.0
20260507135750 56 238 9.6 16.5 0.00 0.00 0.00 62 1013.0
20260507135236 55 229 10.4 17.4 0.00 0.00 0.00 62 1013.0
20260507134747 55 223 10.4 17.4 0.00 0.00 0.00 63 1013.0
20260507134600 55 239 8.7 14.8 0.00 0.00 0.00 63 1013.0
20260507134232 55 243 8.7 14.8 0.00 0.00 0.00 64 1013.1
20260507133742 54 234 8.7 14.8 0.00 0.00 0.00 66 1013.1
20260507133225 53 231 10.4 14.8 0.00 0.00 0.00 67 1013.1
20260507133004 53 250 10.4 17.4 0.00 0.00 0.00 66 1013.1
20260507132737 53 225 9.6 17.4 0.00 0.00 0.00 67 1013.1
20260507132246 53 211 9.6 17.4 0.00 0.00 0.00 68 1013.2
20260507131729 52 216 8.7 13.0 0.00 0.00 0.00 69 1013.2
20260507131506 51 221 7.8 13.0 0.00 0.00 0.00 70 1013.2
20260507131237 51 184 7.8 13.0 0.00 0.00 0.00 71 1013.2
20260507130746 51 218 8.7 13.0 0.00 0.00 0.00 72 1013.3
20260507130229 50 211 8.7 12.2 0.00 0.00 0.00 73 1013.4
20260507130006 49 238 7.0 12.2 0.00 0.00 0.00 74 1013.4
20260507125741 50 238 9.6 12.2 0.00 0.00 0.00 74 1013.4
20260507125225 49 217 7.8 10.4 0.00 0.00 0.00 75 1013.5
20260507124735 49 242 7.8 14.8 0.00 0.00 0.00 76 1013.5
20260507124516 48 230 7.0 14.8 0.00 0.00 0.00 76 1013.5
20260507124230 48 231 9.6 14.8 0.00 0.00 0.00 76 1013.5
20260507123738 48 229 9.6 13.9 0.00 0.00 0.00 77 1013.4
20260507123245 47 215 9.6 13.9 0.00 0.00 0.00 77 1013.4
20260507123051 47 234 7.8 13.0 0.00 0.00 0.00 78 1013.4
20260507122735 47 209 9.6 13.0 0.00 0.00 0.00 78 1013.4
20260507122308 47 238 7.0 10.4 0.00 0.00 0.00 79 1013.4
20260507121729 46 225 7.8 12.2 0.00 0.00 0.00 79 1013.5
20260507121532 46 226 7.8 12.2 0.00 0.00 0.00 80 1013.6
20260507121243 46 219 8.7 12.2 0.00 0.00 0.00 80 1013.5
20260507120726 45 225 7.8 12.2 0.00 0.00 0.00 80 1013.4
20260507120238 45 210 7.8 10.4 0.00 0.00 0.00 81 1013.4
20260507120036 44 209 7.8 10.4 0.00 0.00 0.00 81 1013.5
20260507115745 44 198 7.0 9.6 0.00 0.00 0.00 81 1013.4
20260507115226 44 202 6.1 8.7 0.00 0.00 0.00 80 1013.4
20260507114738 44 210 7.0 9.6 0.00 0.00 0.00 80 1013.4
20260507114542 44 220 6.1 9.6 0.00 0.00 0.00 80 1013.4
20260507114252 44 209 6.1 8.7 0.00 0.00 0.00 80 1013.3
20260507113741 44 211 6.1 8.7 0.00 0.00 0.00 80 1013.4
20260507113224 44 221 6.1 8.7 0.00 0.00 0.00 80 1013.4
20260507113100 44 213 6.1 8.7 0.00 0.00 0.00 80 1013.4
20260507113006 44 213 6.1 8.7 0.00 0.00 0.00 79 1013.4
20260507112735 44 216 7.0 8.7 0.00 0.00 0.00 79 1013.4
20260507112243 44 200 7.0 10.4 0.00 0.00 0.00 79 1013.4
20260507111725 44 209 7.8 10.4 0.00 0.00 0.00 79 1013.4
20260507111509 44 211 7.0 10.4 0.00 0.00 0.00 79 1013.5
20260507111239 44 213 7.8 10.4 0.00 0.00 0.00 79 1013.4
20260507110747 45 217 7.8 12.2 0.00 0.00 0.00 79 1013.4
20260507110232 44 217 7.8 12.2 0.00 0.00 0.00 79 1013.3
20260507110014 44 229 7.0 11.3 0.00 0.00 0.00 79 1013.4
20260507105743 45 214 7.0 10.4 0.00 0.00 0.00 79 1013.3
20260507105228 45 208 7.8 9.6 0.00 0.00 0.00 79 1013.3
20260507104741 45 211 7.0 9.6 0.00 0.00 0.00 78 1013.3
20260507104520 44 214 7.0 9.6 0.00 0.00 0.00 78 1013.3
20260507104226 45 218 7.0 11.3 0.00 0.00 0.00 78 1013.3
20260507103734 45 226 7.0 11.3 0.00 0.00 0.00 78 1013.3
20260507103246 45 209 7.0 8.7 0.00 0.00 0.00 78 1013.2
20260507103024 44 203 7.0 9.6 0.00 0.00 0.00 77 1013.3
20260507102729 45 194 6.1 8.7 0.00 0.00 0.00 77 1013.3
20260507102241 45 215 6.1 10.4 0.00 0.00 0.00 77 1013.3
20260507101725 45 207 7.0 10.4 0.00 0.00 0.00 77 1013.2
20260507101537 45 211 6.1 10.4 0.00 0.00 0.00 77 1013.3
20260507101238 45 188 7.0 9.6 0.00 0.00 0.00 76 1013.3
20260507100746 45 199 7.0 9.6 0.00 0.00 0.00 76 1013.3
20260507100231 45 216 7.0 10.4 0.00 0.00 0.00 76 1013.4
20260507100003 45 221 6.1 10.4 0.00 0.00 0.00 76 1013.5
20260507095745 46 204 6.1 10.4 0.00 0.00 0.00 76 1013.4
20260507095237 46 207 6.1 9.6 0.00 0.00 0.00 75 1013.4
20260507094750 46 213 6.1 12.2 0.00 0.00 0.00 76 1013.5
20260507094549 45 234 7.8 12.2 0.00 0.00 0.00 76 1013.6
20260507094232 46 203 8.7 12.2 0.00 0.00 0.00 76 1013.5
20260507093743 46 213 7.0 9.6 0.00 0.00 0.00 75 1013.5
20260507093226 46 213 7.8 10.4 0.00 0.00 0.00 75 1013.6
20260507093046 45 211 7.0 10.4 0.00 0.00 0.00 75 1013.7
20260507092736 45 199 7.8 10.4 0.00 0.00 0.00 75 1013.7
20260507092307 45 227 7.0 10.4 0.00 0.00 0.00 74 1013.7
20260507091728 45 227 7.0 8.7 0.00 0.00 0.00 74 1013.8
20260507091531 45 225 7.0 9.6 0.00 0.00 0.00 74 1013.8
20260507091239 45 231 7.0 9.6 0.00 0.00 0.00 74 1013.8
20260507090749 45 205 7.0 9.6 0.00 0.00 0.00 73 1013.9
20260507090232 45 246 7.0 10.4 0.00 0.00 0.00 73 1013.9
20260507090034 45 207 7.0 10.4 0.00 0.00 0.00 73 1014.1
20260507085744 45 200 7.0 8.7 0.00 0.00 0.00 73 1013.9
20260507085225 45 209 7.0 10.4 0.00 0.00 0.00 72 1014.1
20260507084733 45 230 7.0 9.6 0.00 0.00 0.00 72 1014.2
20260507084536 45 213 7.0 9.6 0.00 0.00 0.00 72 1014.3
20260507084245 45 227 7.8 10.4 0.00 0.00 0.00 72 1014.2
20260507083726 45 225 7.0 10.4 0.00 0.00 0.00 71 1014.2
20260507083237 45 203 7.0 8.7 0.00 0.00 0.00 71 1014.3
20260507083032 44 218 6.1 9.6 0.00 0.00 0.00 70 1014.4
20260507082233 45 211 7.0 9.6 0.00 0.00 0.00 70 1014.3
20260507081804 45 228 7.0 9.6 0.00 0.00 0.00 69 1014.4
20260507081533 44 226 7.0 9.6 0.00 0.00 0.00 69 1014.5
20260507081226 45 215 7.0 9.6 0.00 0.00 0.00 69 1014.5
20260507080733 45 219 6.1 8.7 0.00 0.00 0.00 68 1014.5
20260507080243 45 215 7.0 8.7 0.00 0.00 0.00 67 1014.7
20260507080039 44 228 7.0 8.7 0.00 0.00 0.00 67 1014.8
20260507075726 45 199 7.0 8.7 0.00 0.00 0.00 67 1014.7
20260507075256 45 211 7.0 9.6 0.00 0.00 0.00 66 1014.7
20260507074746 45 209 7.0 9.6 0.00 0.00 0.00 65 1014.7
20260507074520 44 217 7.0 9.6 0.00 0.00 0.00 65 1014.9
20260507074232 45 215 7.0 8.7 0.00 0.00 0.00 65 1014.7
20260507073740 44 216 7.0 8.7 0.00 0.00 0.00 65 1014.8
20260507073306 44 223 6.1 7.8 0.00 0.00 0.00 64 1014.8
20260507073101 44 221 5.2 7.8 0.00 0.00 0.00 63 1015.0
20260507072728 44 211 6.1 8.7 0.00 0.00 0.00 63 1014.9
20260507072239 44 211 5.2 8.7 0.00 0.00 0.00 61 1015.0
20260507071749 44 204 5.2 7.8 0.00 0.00 0.00 61 1015.1
20260507071557 44 210 5.2 7.8 0.00 0.00 0.00 60 1015.2
20260507071234 45 209 5.2 7.8 0.00 0.00 0.00 59 1015.2